Regional Weather Roundup
Issued by NWS Little Rock, AR

Home | Current Version | Previous Version | Graphics & Text | Print | Product List | Glossary On
Versions: 1 2 3 4 5 6 7 8 9 10 11 12 13 14 15 16 17 18 19 20 21 22 23 24 25 26 27 28 29 30 31 32 33 34 35 36 37 38 39 40 41 42 43 44 45 46 47 48 49 50
000
ASUS44 KLZK 011805
RWRLZK

WEATHER ROUNDUP FOR ARKANSAS
NATIONAL WEATHER SERVICE LITTLE ROCK AR
1200 PM CST SUN FEB 01 2015

NOTE: "FAIR" INDICATES FEW OR NO CLOUDS BELOW 12,000 FEET WITH NO
SIGNIFICANT WEATHER AND/OR OBSTRUCTIONS TO VISIBILITY.

ARZ001-003-010-029-011900-
NORTHWEST ARKANSAS

CITY           SKY/WX    TMP DP  RH WIND       PRES   REMARKS
FAYETTEVILLE   CLOUDY    37  36  96 NW15G22   29.85R
6HR MIN TEMP:  37; 6HR MAX TEMP:  46; 6HR PCP:  0.01;

FORT SMITH     CLOUDY    44  36  73 W15G26    29.89R
6HR MIN TEMP:  41; 6HR MAX TEMP:  48; 6HR PCP:  0.02;

HARRISON       LGT RAIN  45  43  93 W13G24    29.75S FOG
6HR MIN TEMP:  43; 6HR MAX TEMP:  49; 6HR PCP:  0.01;

BENTONVILLE    CLOUDY    37  32  81 NW18G29   29.85S
6HR MIN TEMP:  37; 6HR MAX TEMP:  45; 6HR PCP:  0.02;

ROGERS         CLOUDY    36  34  92 W22G29    29.83R
6HR MIN TEMP:  36; 6HR MAX TEMP:  43; 6HR PCP:  0.02;

SILOAM SPGS    CLOUDY    37  28  70 W16       29.88R
6HR MIN TEMP:  37; 6HR MAX TEMP:  45; 6HR PCP:  0.01;

HIGHFILL       CLOUDY    37  34  89 NW17G23   29.84R
6HR MIN TEMP:  37; 6HR MAX TEMP:  44; 6HR PCP:  0.02;

SPRINGDALE     CLOUDY    37  36  93 W15G30    29.86R
$$

ARZ004-005-016-011900-
NORTH CENTRAL ARKANSAS

CITY           SKY/WX    TMP DP  RH WIND       PRES   REMARKS
BATESVILLE     CLOUDY    52  48  87 W10       29.75S
6HR MIN TEMP:  45; 6HR MAX TEMP:  52; 6HR PCP:  0.23;

FLIPPIN        CLOUDY    48  41  76 W14G21    29.74S
6HR MIN TEMP:  43; 6HR MAX TEMP:  50;

MTN HOME       CLOUDY    47  44  90 W7        29.73S
6HR MIN TEMP:  42; 6HR MAX TEMP:  50; 6HR PCP: TRACE;

$$

ARZ040-041-011900-
WEST CENTRAL ARKANSAS

CITY           SKY/WX    TMP DP  RH WIND       PRES   REMARKS
MENA           CLOUDY    50  46  87 W16       29.86R
MOUNT IDA      CLOUDY    53  48  83 NW8       29.79S
6HR MIN TEMP:  51; 6HR MAX TEMP:  54; 6HR PCP:  0.33;

$$

ARZ009-017-025-026-028-011900-
NORTHEAST ARKANSAS

CITY           SKY/WX    TMP DP  RH WIND       PRES   REMARKS
CORNING        FAIR      50  50 100 SW14      29.71F
JONESBORO      CLOUDY    52  52 100 SW13      29.73F
6HR MIN TEMP:  44; 6HR MAX TEMP:  52; 6HR PCP:  0.32;

NEWPORT        RAIN      51  51 100 SW9       29.76F
6HR MIN TEMP:  45; 6HR MAX TEMP:  53; 6HR PCP:  0.28;

WALNUT RIDGE   CLOUDY    50  46  87 SW13      29.71F
6HR MIN TEMP:  43; 6HR MAX TEMP:  50; 6HR PCP:  0.27;

BLYTHEVILLE    LGT RAIN  54  54 100 SW17G26   29.74F FOG
6HR MIN TEMP:  45; 6HR MAX TEMP:  54; 6HR PCP:  0.38;

$$

ARZ022-023-033-042-044-011900-
CENTRAL ARKANSAS

CITY           SKY/WX    TMP DP  RH WIND       PRES   REMARKS
LITTLE ROCK    LGT RAIN  57  52  83 W10       29.79F
6HR MIN TEMP:  53; 6HR MAX TEMP:  58; 6HR PCP:  0.41;

N LITTLE ROCK  CLOUDY    53  52  97 W12G20    29.79F
6HR MIN TEMP:  51; 6HR MAX TEMP:  55;

JACKSONVILLE   LGT RAIN  53  52  94 W12       29.78F
6HR MIN TEMP:  52; 6HR MAX TEMP:  56; 6HR PCP: TRACE;

SEARCY         RAIN      53  52  96 W10       29.78F
6HR MIN TEMP:  49; 6HR MAX TEMP:  54; 6HR PCP:  0.62;

HOT SPRINGS    CLOUDY    53  51  93 W5        29.81F
6HR MIN TEMP:  51; 6HR MAX TEMP:  56; 6HR PCP:  0.29;

RUSSELLVILLE   CLOUDY    50  45  83 W15G24    29.80S
6HR MIN TEMP:  44; 6HR MAX TEMP:  50; 6HR PCP:  0.06;

CLINTON        CLOUDY    50  48  93 SW6       29.78F
$$

ARZ036-011900-
EAST ARKANSAS

CITY           SKY/WX    TMP DP  RH WIND       PRES   REMARKS
WEST MEMPHIS   CLOUDY    55  55 100 S14G23    29.75F
6HR MIN TEMP:  47; 6HR MAX TEMP:  55; 6HR PCP:  0.31;

$$

ARZ050-053-066-070-073-011900-
SOUTHWEST ARKANSAS

CITY           SKY/WX    TMP DP  RH WIND       PRES   REMARKS
ARKADELPHIA    MOCLDY    57  57 100 W3        29.81F
6HR MIN TEMP:  51; 6HR MAX TEMP:  59; 6HR PCP:  0.28;

CAMDEN         RAIN      59  57  94 MISG      29.80F
TEXARKANA      LGT RAIN  56  54  93 NW10      29.85S
6HR MIN TEMP:  55; 6HR MAX TEMP:  58; 6HR PCP:  0.46;

EL DORADO      CLOUDY    62  59  90 S15G22    29.81F
6HR MIN TEMP:  56; 6HR MAX TEMP:  62; 6HR PCP:  0.05;

DE QUEEN       CLOUDY    54  47  77 NW14G22   29.86R
6HR MIN TEMP:  48; 6HR MAX TEMP:  56;

$$

ARZ056-057-069-011900-
SOUTHEAST ARKANSAS

CITY           SKY/WX    TMP DP  RH WIND       PRES   REMARKS
PINE BLUFF     LGT RAIN  58  56  93 S16       29.77F
6HR MIN TEMP:  52; 6HR MAX TEMP:  59; 6HR PCP:  0.13;

STUTTGART      CLOUDY    57  54  88 S20G29    29.76F
6HR MIN TEMP:  48; 6HR MAX TEMP:  57; 6HR PCP:  0.08;

MONTICELLO     CLOUDY    59  56  89 SW9       29.80F
6HR MIN TEMP:  52; 6HR MAX TEMP:  59; 6HR PCP:  0.09;


$$




USA.gov is the U.S. government's official web portal to all federal, state and local government web resources and services.